Theta_e
310 312 317 327 329 328 333 333 328 330 330 325 325 323 321 324 331 326 329 332 331 331 329 329 325 323 320 320 319 319 318 317 316 316 315 311 309 308 312 314 314 314 319 321 319 316 314 310 309
315 320 327 332 332 335 334 332 333 329 331 326 324 324 324 324 328 330 331 331 330 330 329 328 326 324 323 322 321 321 319 318 319 319 318 314 312 314 315 314 313 314 318 324 325 323 320 317 312
319 326 333 332 332 336 334 331 331 330 329 329 324 324 324 326 327 327 329 329 330 330 328 326 325 324 324 323 323 321 319 319 320 320 319 316 317 325 323 321 318 318 322 328 329 327 324 322 319
326 329 330 333 336 333 331 331 332 326 328 323 324 325 326 326 326 326 328 329 329 326 323 322 324 324 324 323 323 319 318 317 317 317 318 320 325 325 327 323 320 321 323 325 328 328 329 327 324
324 334 333 333 334 332 329 331 331 323 323 323 324 325 326 326 326 326 327 328 327 324 321 320 323 325 323 322 319 318 317 317 315 313 316 323 325 323 324 323 325 324 322 327 327 327 326 328 328
331 330 329 331 329 327 325 328 326 324 325 324 325 324 326 326 326 326 327 327 327 320 320 320 323 325 325 321 319 319 318 319 317 314 316 320 319 320 321 322 322 321 322 322 326 326 326 323 327
329 325 327 327 328 327 326 328 324 324 324 325 325 325 326 326 326 326 327 327 323 321 321 321 324 325 325 321 320 321 320 321 318 317 320 323 323 323 323 322 321 322 323 323 324 325 324 323 324
331 323 327 325 326 326 325 326 325 326 326 327 325 324 325 326 326 326 327 327 322 323 323 323 323 325 323 320 321 321 321 321 318 318 321 324 325 323 321 320 317 318 319 322 324 320 321 323 324
329 325 326 325 324 324 325 325 326 327 327 325 327 326 326 326 325 326 327 327 323 325 324 325 324 325 322 321 322 322 321 319 318 320 322 324 323 322 319 317 317 317 317 317 319 318 315 318 321
325 325 325 324 323 324 325 326 328 326 327 325 326 328 327 326 325 327 327 326 323 324 324 325 325 324 321 322 322 322 321 318 318 322 323 324 323 323 321 321 318 318 321 321 323 324 321 322 321
325 327 326 326 325 325 326 327 328 327 327 327 326 328 328 326 325 327 327 326 325 325 325 324 325 323 322 322 322 322 319 318 322 323 324 324 324 323 322 321 319 320 320 322 323 323 325 323 323
325 325 326 326 326 326 325 327 327 327 327 328 329 329 328 326 325 326 327 326 325 325 324 324 324 323 323 323 322 321 317 321 325 325 325 324 324 323 322 322 318 321 322 322 322 321 322 323 322
323 325 326 326 327 326 326 326 326 327 327 328 329 329 328 326 325 326 326 326 326 325 324 324 324 324 324 323 322 318 317 324 327 325 325 325 324 323 322 323 321 319 322 324 322 321 321 323 322
324 325 325 325 326 326 326 326 327 328 328 329 328 328 327 326 326 326 326 326 326 326 325 324 324 324 324 322 320 316 322 327 327 327 327 327 325 325 324 323 323 321 319 321 320 320 321 321 322
318 318 317 318 320 321 323 324 325 326 327 327 327 327 326 326 325 325 326 326 325 326 325 324 323 324 323 322 317 317 324 326 327 327 328 328 326 325 325 324 324 324 321 321 320 319 320 321 322
317 317 317 318 319 320 322 323 323 324 326 325 325 326 327 327 326 326 325 325 325 326 325 323 323 323 322 320 316 321 325 326 328 327 327 327 327 326 325 324 323 323 321 321 321 319 319 322 322
314 316 316 316 317 318 322 321 322 323 324 324 324 325 326 325 325 325 325 325 325 325 324 323 323 322 321 318 317 323 325 327 328 327 326 326 327 326 325 324 322 322 320 321 321 319 320 322 322
315 314 315 316 318 318 318 319 320 321 322 323 324 324 324 324 326 325 325 325 325 325 324 323 322 322 320 317 319 324 325 326 326 325 326 327 326 326 325 324 322 320 321 321 321 320 320 322 322
314 314 314 315 317 318 318 319 320 321 321 320 321 322 323 325 325 325 325 323 323 324 322 322 322 322 318 316 321 323 323 325 325 326 326 327 327 327 326 324 322 320 321 321 320 321 320 322 322
315 314 314 316 319 319 319 319 319 319 320 321 322 322 323 324 325 325 324 322 322 323 322 322 322 321 317 319 320 321 323 325 326 327 326 326 326 326 326 324 320 321 321 321 321 320 320 322 323
315 315 316 316 319 319 319 319 319 320 321 321 322 323 325 325 326 325 324 323 321 322 322 322 322 318 318 320 320 322 325 326 326 325 326 325 325 322 323 323 322 321 321 321 320 320 321 322 323
318 317 317 318 320 319 319 321 319 319 321 319 321 323 324 326 323 323 323 322 321 322 322 323 320 320 320 319 321 325 326 326 324 324 325 325 322 322 323 323 322 321 320 321 320 321 321 322 323
318 318 318 319 319 318 319 319 319 318 319 320 319 323 324 322 323 324 324 322 321 322 323 322 321 321 319 320 325 328 327 326 324 323 324 325 323 322 322 322 320 320 321 321 320 321 321 321 323
317 316 317 316 316 319 318 319 319 320 321 320 319 322 322 322 323 323 323 322 322 323 323 322 322 321 320 322 326 328 327 326 324 323 323 325 325 322 321 320 321 322 322 321 322 322 322 323 323
315 313 314 316 317 320 318 319 319 319 319 319 320 321 323 322 324 324 323 322 323 323 323 323 323 322 321 323 328 328 328 326 325 322 324 325 324 323 321 322 323 323 325 324 323 322 322 323 323
316 315 314 317 320 322 319 322 322 319 320 321 322 321 322 322 324 324 323 323 324 324 323 323 324 321 323 327 328 327 328 327 326 323 324 324 323 323 321 322 323 323 324 324 324 324 325 324 323
315 314 315 318 319 320 319 320 321 320 320 319 319 320 321 323 323 324 323 324 324 324 323 323 322 323 324 328 328 327 328 327 324 323 321 322 323 323 321 322 323 323 323 323 324 324 325 325 323
313 314 316 315 319 321 320 321 322 322 320 321 321 319 321 323 323 324 324 324 324 325 323 323 321 323 324 327 327 328 327 328 324 323 323 320 322 322 320 320 323 324 322 322 324 325 325 324 324
312 313 313 315 314 319 320 321 317 320 319 320 319 320 322 323 324 324 324 324 326 324 323 321 323 324 325 326 327 327 327 328 324 324 323 322 320 321 319 319 322 321 321 323 323 323 327 326 324
314 314 313 316 317 317 319 320 319 318 317 317 319 321 322 324 324 324 324 325 326 323 322 320 323 324 324 325 327 327 327 327 325 324 323 324 321 319 318 318 317 318 323 324 325 326 327 328 328
Wind_Speed
12 13 12 4 3 4 4 6 3 5 4 4 2 6 8 5 7 5 5 17 13 18 17 23 22 16 13 11 11 11 11 11 11 12 12 12 12 12 11 11 12 11 10 9 10 12 12 14 14
12 12 7 4 3 1 5 4 6 6 8 12 6 6 2 5 7 3 14 15 15 17 16 16 17 16 13 11 12 12 12 12 13 14 14 14 13 13 11 12 14 15 13 10 10 11 12 13 14
11 8 3 3 3 5 5 5 4 14 28 13 5 7 3 4 7 4 10 15 17 18 15 14 16 15 13 12 12 11 12 13 14 16 17 16 14 13 15 13 16 16 15 13 13 13 13 13 13
7 3 4 3 7 7 6 7 6 11 21 5 6 3 6 8 4 8 13 16 16 13 13 13 14 14 13 11 10 10 10 12 14 17 18 16 14 16 18 16 19 18 18 18 16 15 16 15 15
9 2 1 2 6 6 7 18 17 8 8 11 5 4 5 9 13 10 12 16 15 13 14 14 16 17 13 9 7 8 8 10 13 15 15 14 18 19 20 20 20 20 20 19 18 17 16 18 18
4 2 1 4 5 5 7 19 13 6 5 8 4 4 8 11 16 15 15 16 14 10 14 17 18 18 15 11 9 9 9 9 13 13 14 15 17 19 21 22 23 23 22 23 20 20 18 20 21
5 4 4 4 6 6 6 5 5 2 6 7 7 3 6 12 14 17 16 18 16 16 15 18 18 18 17 15 12 10 10 11 15 13 12 13 14 18 22 23 25 26 26 25 24 24 23 22 22
6 4 3 6 4 8 7 5 7 1 8 13 3 4 9 21 14 19 19 22 19 19 19 19 19 20 19 18 15 12 12 15 16 14 13 14 16 17 19 20 19 19 22 22 24 24 25 24 23
9 2 6 8 7 8 4 3 4 2 9 8 16 25 26 31 27 22 25 28 25 26 24 24 21 20 19 19 16 14 14 17 17 16 15 16 16 14 14 13 14 14 15 15 15 17 21 24 26
9 6 11 12 10 7 6 2 17 7 18 15 24 30 29 29 24 25 32 34 32 31 29 28 25 24 22 21 18 15 17 17 16 16 15 15 14 14 12 12 11 11 11 12 14 16 16 17 23
9 15 20 20 27 10 9 15 14 11 15 26 22 38 39 34 23 27 32 36 32 30 30 29 28 27 24 22 18 16 18 16 15 14 14 14 14 13 12 11 11 11 12 14 15 16 15 18 20
4 18 30 29 26 18 9 16 22 25 29 37 38 42 43 35 28 31 32 37 34 33 31 29 29 28 26 21 17 16 16 14 12 11 11 13 13 13 12 11 10 10 9 11 11 13 13 16 19
9 13 21 25 26 30 24 18 22 29 45 41 38 41 40 36 33 34 31 34 35 35 32 31 30 29 26 22 17 15 13 11 10 10 11 11 12 13 13 12 12 11 12 12 11 10 12 14 16
8 23 26 21 32 34 22 18 23 39 37 35 36 39 42 39 33 35 35 35 39 37 35 32 30 28 25 21 16 12 9 7 9 10 11 12 12 13 14 14 14 11 11 13 13 12 12 14 16
12 7 9 15 22 10 22 13 21 46 33 31 36 40 42 41 33 34 37 32 38 40 37 31 30 29 25 19 14 10 6 7 10 11 13 14 14 13 14 14 14 14 12 12 12 11 12 14 17
3 2 3 6 4 8 12 11 22 33 28 34 34 33 35 38 36 35 37 36 40 42 37 30 30 28 23 18 11 7 6 6 9 12 13 15 16 15 13 14 14 13 13 12 11 12 13 13 15
3 11 11 8 8 4 8 13 16 21 13 23 31 35 34 35 38 36 35 38 43 42 36 29 29 27 21 15 10 8 7 7 10 12 13 14 14 14 14 13 11 13 12 11 12 12 13 13 14
6 5 6 10 2 4 9 15 18 37 17 23 26 34 38 40 43 38 30 39 42 37 31 27 28 24 19 14 11 8 5 8 11 12 13 12 11 12 13 12 12 13 11 11 12 12 13 12 12
6 14 14 2 4 6 9 9 14 23 12 18 28 34 41 43 38 28 25 32 31 29 29 31 29 23 19 14 11 7 5 9 9 12 12 9 9 11 11 11 12 12 11 10 11 12 15 13 12
9 12 17 11 3 7 10 13 15 16 17 20 28 37 36 31 25 23 22 26 30 33 35 32 25 20 16 12 9 6 6 8 10 11 10 8 9 11 12 10 10 9 9 10 10 12 16 14 13
14 18 17 11 7 6 7 12 11 13 13 17 25 22 23 25 21 19 19 25 30 34 37 29 22 18 14 10 7 5 5 8 9 9 6 7 8 8 6 8 9 7 7 6 8 12 15 15 15
19 16 15 12 4 9 5 6 10 9 17 9 21 24 25 21 20 18 21 23 29 36 31 23 20 17 13 9 5 3 5 8 7 7 5 5 5 2 2 6 7 6 6 7 8 10 12 13 14
13 7 7 7 7 2 5 5 6 5 9 14 11 26 27 21 18 15 17 22 31 33 26 21 19 15 10 7 5 2 6 7 7 6 5 5 3 2 3 5 5 5 5 6 9 11 13 12 11
5 3 4 4 1 9 14 7 5 6 11 6 6 11 14 11 12 14 18 25 32 28 23 20 18 12 8 7 5 2 6 5 6 6 6 5 5 5 5 6 4 4 4 6 8 11 13 11 10
7 7 1 3 1 5 6 6 14 10 9 9 12 18 8 11 16 20 26 35 32 27 23 20 16 10 8 7 5 2 5 5 7 8 7 4 2 8 8 7 5 4 6 6 6 10 12 11 10
15 10 6 6 3 5 6 8 9 13 16 22 24 18 11 18 19 23 31 35 30 26 22 19 15 9 9 9 5 1 4 6 6 8 5 1 5 9 10 9 5 5 6 4 4 6 10 9 7
12 10 12 2 2 1 4 7 8 6 9 6 1 7 16 20 23 26 33 32 28 23 20 17 12 11 8 9 6 2 3 6 6 9 7 3 7 10 11 9 5 3 4 3 3 5 6 6 6
9 11 7 7 6 4 5 5 6 2 6 4 5 10 19 21 23 27 33 31 24 19 18 16 12 10 10 8 6 4 1 6 6 7 7 4 8 10 10 8 6 3 3 3 4 3 3 5 8
5 7 3 8 5 5 1 6 7 8 9 9 9 17 24 27 27 30 33 28 22 20 19 16 14 12 11 8 7 3 1 5 4 4 2 4 7 11 10 9 7 3 3 3 4 5 5 6 6
22 15 8 7 5 4 4 6 3 9 7 7 8 16 19 23 27 30 33 29 24 22 21 17 15 13 10 9 7 4 1 3 2 3 3 3 8 10 9 6 6 6 5 6 8 7 8 6 5
Wind_Direction
148 145 140 139 35 63 259 256 297 277 293 326 159 170 191 172 166 211 198 165 180 179 191 196 204 211 221 235 239 248 263 269 274 276 275 277 275 276 273 279 285 280 265 258 264 271 268 260 252
146 147 132 106 97 341 262 246 233 229 279 305 272 241 238 250 219 228 161 182 178 178 185 188 198 209 221 230 234 247 260 271 274 269 273 273 269 270 266 276 281 284 278 268 254 257 267 265 257
149 149 115 111 150 208 238 228 248 307 323 261 218 234 238 232 225 216 197 192 180 180 186 191 195 207 215 222 232 253 272 278 276 274 270 273 269 260 269 274 278 276 268 268 272 273 261 262 263
152 153 78 109 238 259 237 272 301 312 330 162 226 248 249 238 223 227 203 191 183 177 186 191 197 201 209 216 239 262 275 288 286 278 276 276 268 261 263 274 274 267 265 264 259 254 266 265 261
165 109 72 251 248 257 257 268 286 292 293 293 226 256 242 245 238 231 215 198 191 188 194 198 201 208 203 210 232 261 274 299 300 289 278 266 264 266 264 271 263 262 263 259 261 258 251 257 258
136 117 56 244 232 245 259 267 267 253 291 307 216 214 258 256 236 232 221 205 195 210 202 204 205 209 210 210 228 248 250 291 309 296 280 265 265 266 264 262 263 264 261 262 257 257 256 250 253
144 107 231 254 262 283 229 261 195 228 318 319 279 224 281 293 257 231 229 205 206 210 213 211 211 211 214 220 231 249 259 286 305 295 274 263 265 272 271 267 263 257 254 257 257 254 248 247 251
188 132 251 243 215 262 209 205 186 223 294 319 311 261 287 306 292 246 223 206 215 217 220 222 216 213 216 219 233 250 273 292 298 291 275 270 274 274 274 270 266 263 261 257 256 258 255 246 245
184 149 240 237 184 243 147 318 287 314 281 294 289 290 294 297 291 234 209 207 215 219 223 224 221 217 219 222 236 252 275 289 292 281 274 273 277 278 276 268 265 259 258 257 263 262 253 246 240
181 196 227 221 214 246 288 287 304 319 304 292 294 298 299 302 272 228 209 212 217 222 222 222 222 218 217 221 237 256 277 287 282 274 271 270 269 285 274 278 270 260 259 251 253 261 257 239 241
205 225 229 260 247 263 285 299 307 282 286 288 289 301 304 306 262 231 228 227 233 230 224 224 220 218 221 223 238 260 275 278 273 270 272 270 270 287 274 281 264 261 254 250 253 255 250 238 237
219 232 238 248 262 275 259 288 283 285 274 282 292 295 297 292 274 247 239 233 232 231 230 226 220 219 220 225 239 258 272 272 273 274 275 274 275 275 269 270 268 257 256 259 267 254 251 239 237
237 243 246 253 266 269 278 262 268 279 279 285 290 292 293 291 276 257 247 244 236 234 231 226 222 222 221 229 238 261 270 274 279 276 279 281 277 270 262 266 260 256 255 256 257 257 247 239 231
207 237 253 267 262 263 268 278 276 272 273 280 286 290 295 294 282 257 240 246 235 236 233 228 226 224 224 227 245 261 260 277 278 284 281 277 277 270 261 259 256 259 259 251 253 259 246 238 232
246 239 260 251 256 256 268 270 257 266 279 280 283 287 288 289 280 254 255 253 241 236 230 230 227 222 219 228 244 252 259 280 289 289 282 276 275 272 262 261 252 251 256 252 248 258 247 242 227
194 207 242 255 205 255 181 260 271 272 271 273 277 285 289 287 282 274 263 251 241 233 229 229 226 218 216 229 239 235 250 282 303 294 287 277 272 269 263 260 253 248 254 253 250 260 247 242 229
243 251 256 287 227 231 178 275 270 279 281 277 281 287 286 289 292 291 269 250 242 232 227 227 220 210 217 223 221 225 242 288 306 302 292 275 267 269 265 264 258 244 246 254 255 254 242 233 225
205 247 239 236 276 209 260 258 274 279 267 267 281 285 289 294 292 298 278 250 238 229 227 220 206 204 211 213 213 222 263 293 307 311 299 276 269 271 264 264 247 235 242 254 254 247 231 222 217
205 230 244 251 199 240 242 265 268 280 271 272 280 283 292 293 296 292 282 249 235 222 213 202 199 204 210 208 211 224 281 301 308 315 300 278 273 274 271 262 240 232 246 256 248 237 214 205 199
212 239 254 268 221 237 272 272 273 277 274 266 272 278 281 286 284 282 267 242 231 217 199 197 198 207 207 203 216 238 287 308 311 318 301 285 288 285 269 250 225 236 245 252 246 220 193 193 188
215 224 242 249 315 254 309 290 270 280 277 277 282 283 295 276 270 267 239 225 216 200 193 188 196 203 197 201 212 248 301 320 319 319 306 300 301 291 255 222 220 234 243 246 210 189 187 194 186
221 219 242 264 278 268 142 280 301 301 299 288 285 296 293 284 273 241 225 212 200 188 182 184 194 194 192 199 209 254 322 339 329 327 319 311 313 302 183 195 214 221 220 209 184 178 186 190 189
233 204 222 233 229 239 256 277 269 273 282 282 276 287 281 272 260 242 218 197 182 177 177 184 187 185 191 200 210 279 343 337 336 326 320 292 298 208 206 189 187 193 203 187 187 185 183 190 207
137 202 40 36 65 257 261 206 221 228 237 261 266 277 297 253 218 200 189 172 168 171 178 181 184 180 188 199 209 304 349 343 341 339 323 283 271 212 183 164 155 163 173 178 184 181 185 190 203
138 100 276 333 270 230 192 183 249 255 231 226 257 277 288 199 172 173 165 166 168 175 180 182 180 180 186 190 194 304 354 352 340 341 328 289 225 187 175 153 140 137 133 129 155 185 190 198 212
196 167 154 203 222 255 161 205 248 225 233 246 258 260 206 188 170 167 168 168 172 179 179 180 179 183 185 180 186 220 6 3 347 346 349 24 157 170 169 160 141 140 105 106 137 183 190 192 229
198 190 179 14 188 313 224 279 308 226 255 264 202 198 186 180 170 168 169 170 176 177 178 178 176 179 180 176 189 186 52 13 10 17 21 115 148 163 168 165 159 141 132 110 118 158 194 226 229
158 142 178 204 199 220 271 268 232 229 241 291 230 200 181 174 170 167 171 174 176 177 175 171 175 173 170 175 174 139 20 11 27 36 47 98 149 162 169 169 172 117 130 113 132 160 199 193 186
166 172 159 170 162 168 276 262 215 230 228 234 222 186 185 172 170 168 173 174 173 172 176 174 175 170 171 173 175 183 278 360 16 31 82 103 148 161 162 170 184 176 137 128 115 125 120 144 151
200 193 159 190 195 208 163 267 213 230 256 234 226 176 183 177 169 171 172 172 173 175 178 181 177 176 175 176 178 177 209 349 11 25 125 112 164 166 169 178 175 150 129 110 100 96 91 104 130